星链-35784(STARLINK-35784)

导读

STARLINK-35846是美国SpaceX星链星座的一颗卫星,于2025年11月6日发射。星链是SpaceX打造的巨型低轨卫星互联网星座,旨在为全球提供高速低延迟宽带网络服务。该卫星加入星座后,进一步扩充了星链网络的覆盖范围与服务容量,助力全球偏远地区网络接入和应急通信等场景的服务能力提升。

基本信息
目录编号:
66367
目录名称:
STARLINK-35846
国际标识:
2025-254V
轨道中心:
EARTH
卫星名称:
星链-35784
卫星全名:
星链-35784(STARLINK-35784)
卫星状态:
在轨 (已飞行219 天)
发射日期:
2025-11-06 UTC
国别 :
美国 (US)
星等 :
--
轨道信息
数据来源 国际轨道数据 AOE轨道数据
星历时间 2026-06-12T14:50:59+0800
1天前
查看轨道信息
2026-06-12T04:00:00+0800
1天前
查看轨道信息
半长轴 6853.343km 6853.364km
偏心率 0.0001265 0.0001389
轨道倾角 53.159° 53.159°
近地点辐角 106.755° 72.923°
升交点赤经 152.709° 154.811°
平近点角 253.359° 315.458°
近地点 474.339km 474.275km
远地点 476.073km 476.179km
周期 94.105分钟 94.106分钟
每日圈数 15.302032 15.301963
详细信息
固有亮度:
5
最大亮度:
2.5
卫星平台:
Starlink V1.0
覆盖范围:
全球
运营商:
太空探索技术公司
运营商所在国:
美国
制造商(研发单位):
太空探索技术公司
制造商所在国:
美国
使用方式:
暂无
卫星简介
Starlink 计划是 SpaceX 推出的全球卫星互联网项目,通过发射低轨道卫星,为全球尤其是偏远地区提供高速、低延迟的互联网服务。自 2019 年起,Starlink 已部署数千颗卫星,旨在缩小全球数字鸿沟,推动互联网普及。该项目还为军事、航空等行业提供通信支持,带来广泛经济效益。
2D轨道图
3D轨道图
轨道高度分析图
轨道倾角分析图
轨道综合分析图
查看轨道综合分析图